Flag for Latvia Weather past 2 weeks in Liepāja, Latvia

Now
46 °F

Fog.


Feels Like: 45 °F
Forecast: 54 / 61 °F
Wind: 3 mph from East

Location: Liepaja International Airport

Current Time: Sep 21, 2014 at 7:48:02 AM

Latest Report: Sep 21, 2014 at 7:20 AM


Visibility: 1 mi

Pressure: 29.86 "Hg

Humidity: 100%

Dew point: 46 °F

Location of LiepājaLocation

Historic Weather in Liepāja — Graph

°F

Liepāja temperature yesterday

Maximum temperature yesterday: 70 °F (at 2:20 PM)
Minimum temperature yesterday: 48 °F (at 5:50 AM)
Average temperature yesterday: 56 °F

Past Weeks' High & Low Weather Summary

 TemperatureHumidityPressure
High75 °F (Sep 8, 2:50 PM)100% (Sep 6, 6:50 AM)30.42 "Hg (Sep 6, 6:50 AM)
Low43 °F (Sep 15, 10:50 PM)41% (Sep 8, 2:50 PM)29.86 "Hg (Sep 10, 12:20 AM)
Average59 °F84%30.15 "Hg
* Reported Sep 6 6:20 AM — Sep 21 6:20 AM, Liepāja, Weather by CustomWeather, © 2014

Note: Actual official high and low records may vary slightly from our data, if they occured in-between our weather recording intervals... More about our weather records

Advertising

Liepāja weather history for previous 24 hours

 ConditionsComfort  
Time TempWeatherWind HumidityBarometerVisibility
6:20 AM
Sep 21
46 °FFog.2 mph100%29.86 "Hg0 mi
5:50 AM46 °FFog.2 mph100%29.86 "Hg0 mi
5:20 AM46 °FFog.2 mph100%29.86 "Hg0 mi
4:50 AM48 °FFog.2 mph100%29.89 "Hg0 mi
4:20 AM48 °FFog.2 mph100%29.89 "Hg0 mi
3:50 AM48 °FFog.3 mph100%29.89 "Hg1 mi
3:20 AM50 °FFog.3 mph94%29.89 "Hg1 mi
2:50 AM50 °FPassing clouds.3 mph100%29.89 "Hg2 mi
2:20 AM50 °FCool.3 mph100%29.89 "Hg3 mi
1:50 AM50 °FCool.3 mph100%29.92 "Hg3 mi
1:20 AM50 °FCool.5 mph100%29.92 "Hg5 mi
12:50 AM52 °FCool.3 mph94%29.92 "Hg5 mi
12:20 AM54 °FClear.5 mph94%29.92 "Hg10 mi
11:50 PM
Sep 20
54 °FClear.3 mph94%29.92 "Hg10 mi
11:20 PM52 °FCool.3 mph100%29.92 "Hg5 mi
10:50 PM50 °FLight rain. Overcast.2 mph100%29.92 "Hg1 mi
10:20 PM52 °FFog.2 mph100%29.95 "Hg0 mi
9:50 PM52 °FFog.2 mph100%29.95 "Hg1 mi
9:20 PM54 °FFog.1 mph100%29.95 "Hg1 mi
8:50 PM55 °FFog.No wind94%29.95 "Hg1 mi
4:20 PM66 °FSunny.7 mph68%29.98 "Hg10 mi
3:50 PM68 °FSunny.7 mph64%29.98 "Hg10 mi
3:20 PM68 °FSunny.8 mph64%29.98 "Hg10 mi
2:50 PM70 °FSunny.2 mph57%29.98 "Hg10 mi
2:20 PM70 °FSunny.3 mph57%29.98 "Hg10 mi
1:20 PM68 °FPassing clouds.6 mph56%29.98 "HgN/A
12:50 PM66 °FPassing clouds.6 mph60%29.98 "HgN/A
12:20 PM64 °FPassing clouds.6 mph60%29.98 "HgN/A
11:50 AM63 °FPassing clouds.5 mph68%30.01 "HgN/A
11:20 AM63 °FSunny.2 mph64%30.01 "Hg10 mi
10:50 AM59 °FPassing clouds.3 mph72%30.01 "HgN/A
10:20 AM57 °FSunny.5 mph77%30.01 "Hg10 mi
9:50 AM57 °FSunny.2 mph77%30.01 "Hg10 mi
9:20 AM54 °FSunny.5 mph82%30.01 "Hg10 mi
8:50 AM52 °FClear.5 mph88%30.01 "Hg10 mi
8:20 AM50 °FClear.3 mph88%30.01 "Hg10 mi
7:50 AM48 °FClear.3 mph87%30.01 "Hg10 mi
7:20 AM48 °FClear.3 mph94%30.01 "Hg10 mi
Weather by CustomWeather, © 2014

See weather overviewHow to use our weather pages